Anderson Municipal-Darlington Field (AID)

 

Airport Diagram
Current Weather/Forecast (VFR Conditions)
METAR KAID 181335Z AUTO 31003KT 10SM CLR 07/01 A2997 RMK AO2 T00660005
TAF

Airport Information

All Charts
General
Chart Name View
AIRPORT DIAGRAM
AIRPORT DIAGRAM
TAKEOFF MINIMUMS
ALTERNATE MINIMUMS
TAKEOFF MINIMUMS
ALTERNATE MINIMUMS

Approaches
Chart Name Download
ILS OR LOC RWY 30
RNAV (GPS) RWY 30
NDB RWY 30
ILS OR LOC RWY 30
RNAV (GPS) RWY 30
NDB RWY 30


Airport Statistics
Departures Arrivals Local
All Collected Stats since June 2016: 18 16 1
2021 Stats: 1 1 0
April Stats: 1 0 0

Inbound Traffic (Arrivals) - 0

No inbound traffic.


Outbound Traffic (Departures) - 0

No outbound traffic.


Local Traffic (Pattern) - 0

No local traffic.